Weather in Ust'e

Russia / Voronezh Oblast     51°33′37″N   39°01′15″E
temp.,
°C
wind,
m/s
gust,
m/s
humid.,
%
clouds,
%
prec.,
mm/h
press.,
hPa
HPBL,
m
3 august, tue
tue300:00+24w495399 0.0 1009287
03:00+20nw1176100 0.0 101011
06:00+20sw2485100 1.2 1010114
09:00+25wsw45665 1.2 1010623
12:00+28w6748100 0.0 10101534
15:00+28wsw354455 0.0 10101267
18:00+26w474522 0.2 1010548
21:00+20nw41069100 0.4 1013262
4 august, wed
wed400:00+17nw3878100 0.2 1014167
03:00+16nw35815 0.2 101492
06:00+16nw37800 0.0 1015178
09:00+23nnw44490 0.0 1016966
12:00+26nw453395 0.0 10162727
15:00+27nw553191 0.0 10152383
18:00+23wnw484393 0.0 1016442
21:00+19nw35534 0.0 101776
5 august, thu
thu500:00+16nw33600 0.0 101833
03:00+15nw22611 0.0 101811
06:00+15nnw2261100 0.0 101926
09:00+22n224111 0.0 1018549
12:00+27n1228100 0.0 10171785
15:00+28wnw112757 0.0 10162191
18:00+28se112868 0.0 10151494
21:00+22se343789 0.0 101552
6 august, fri
fri600:00+20sse3446100 0.0 101466
03:00+18sse34485 0.0 101553
06:00+18sse37495 0.0 1014137
09:00+27sse5731100 0.0 1013611
12:00+32s672391 0.0 10122402
15:00+34s66225 0.0 10102917
18:00+33s672441 0.0 10102796
21:00+26se4113699 0.0 1010182
7 august, sat
sat700:00+24se51435100 0.0 1010279
03:00+23se51435100 0.0 1010342
06:00+22se4133847 0.0 1011327
09:00+29sse6924100 0.0 1011751
12:00+32sse5721100 0.0 10101563
15:00+35se6818100 0.0 10082826
18:00+34ese682097 0.0 10081682
21:00+29ese61425100 0.0 1009418